165  
ASHW40 PHFO 111243  
RWRHI  
 
WEATHER ROUNDUP FOR HAWAII  
NATIONAL WEATHER SERVICE HONOLULU HI  
200 AM HST THU FEB 11 2016  
 
THIS IS AN AUTOMATED REPORT THAT HAS NOT BEEN QUALITY CONTROLLED.  
 
NOTE..."FAIR" INDICATES FEW OR NO CLOUDS BELOW 12,000 FEET WITH NO  
SIGNIFICANT WEATHER AND/OR S TO VISIBILITY
.  
 
* - THESE SITES REPORT LIMITED FIELDS  
 
HIZ001>004-111300-  
KAUAI-NIIHAU-  
 
CITY SKY/WX TMP DP RH WIND PRES REMARKS
 
LIHUE APT MOCLDY 66 61 82 W6 30.06F  
PORT ALLEN* N/A 64 N/A N/A N8 N/A  
POIPU* N/A 63 N/A N/A NW3 N/A  
PRINCEVILLE* N/A 66 N/A N/A S3 N/A  
KOKOLE POINT* NOT AVBL  
MOLOAA DAIRY* N/A 66 63 88 CALM N/A  
WAIMEA HTS* N/A 68 55 64 VRB5 N/A  
PUU OPAE* N/A 61 55 82 NE2 N/A  
PUU LUA* NOT AVBL  
MAKAHA RIDGE* N/A 63 59 88 CALM N/A  

 
 
HIZ005>011-111300-  
OAHU-  
 
CITY SKY/WX TMP DP RH WIND PRES REMARKS
 
HONOLULU PTCLDY 68 61 78 NW3 30.04F  
KALAELOA CLEAR 62 56 80 NE3 30.05F  
KANEOHE MCB MOCLDY 67 63 87 S3 30.02F  
WHEELER FIELD FAIR 61 57 87 NW6 30.04F  
BELLOWS* N/A N/A N/A N/A VRB3G10 N/A  
KAHUKU* N/A N/A N/A N/A VRB1 N/A  
WHEELER* N/A N/A N/A N/A N5 N/A  
WAIANAE HARBOR N/A N/A N/A N/A NE3 N/A  
DILLINGHAM* N/A 64 59 82 MISG N/A  
KAHUKU TRN* N/A 64 59 82 E3 N/A  
KAWAILOA* N/A 63 57 82 CALM N/A  
KII* N/A 66 61 82 SE3 N/A  
MAKUA RANGE* N/A 64 59 82 E5 N/A  
OAHU FOREST NW N/A 61 59 94 CALM N/A  
SCHOFIELD BRK* N/A 57 54 88 MISG N/A  
SCHOFIELD S* NOT AVBL  
WAIANAE VLY* N/A 63 54 72 NW6 N/A  
KUAOKALA* N/A 66 59 77 NE9G15 N/A  
HONOULIUULI* NOT AVBL  
MOKUOLOE IS* NOT AVBL  
PALEHUA* N/A 61 57 88 VRB6G13 N/A  
WAIAWA PHB* NOT AVBL  

 
 
HIZ012>013-111300-  
MOLOKAI-  
 
CITY SKY/WX TMP DP RH WIND PRES REMARKS
 
MOLOKAI AIRPT CLEAR 65 60 84 NE5 30.05F  
KALAUPAPA NOT AVBL  
MAKAPULAPAI* N/A 72 63 73 E9 N/A  
MOLOKAI 1* N/A N/A N/A N/A E3G13 N/A  
PUU ALII* N/A 52 51 96 N2G8 N/A  

 
 
HIZ016-111300-  
KAHOOLAWE-  
 
CITY SKY/WX TMP DP RH WIND PRES REMARKS
 
KAHOOLAWE* N/A 64 N/A N/A NE1 N/A  
HAKIOAWA* N/A 63 60 89 MISG 30.44F  
HONOKANAIA* N/A 69 60 74 NE7G13 29.99  
KANELOA* N/A 68 63 83 NE7G15 30.11S  
KEALIALALO* NOT AVBL  
LUA MAKIKA* NOT AVBL  

 
 
HIZ014>015-111300-  
LANAI-  
 
CITY SKY/WX TMP DP RH WIND PRES REMARKS
 
LANAI CITY FAIR 64 58 80 NE13 30.07F  
LANAI 1* N/A 64 59 82 NE15G23 N/A  

 
 
HIZ017>028-111300-  
MAUI-  
 
CITY SKY/WX TMP DP RH WIND PRES REMARKS
 
KAHULUI CLEAR 65 60 84 NE3 30.04F  
KAPALUA-W MAUI NOT AVBL  
HANA AIRPORT NOT AVBL  
HANA* N/A 64 N/A N/A S5 N/A  
HALEAKALA SUMM N/A 45 3 18 N8 N/A  
MAALAEA BAY* N/A 68 N/A N/A N9G16 N/A  
HALEAKALA* NOT AVBL  
KAUPO GAP* N/A 50 36 57 NW3 N/A  
KULA 1* N/A 48 14 25 E6 N/A  

 
 
HIZ023>026-111300-  
BIG ISLAND OF HAWAII COAST AND LOWER SLOPES-  
 
CITY SKY/WX TMP DP RH WIND PRES REMARKS
 
KAILUA KONA NOT AVBL  
HILO CLEAR 63 55 75 SW6 30.04F  
HONOKAA* N/A 61 N/A N/A VRB1 N/A  
KAWAIHAE MWT* N/A 70 N/A N/A SE2 N/A  
KAWAIHAE* NOT AVBL  
SOUTH POINT* N/A 64 N/A N/A NW6 N/A  
UPOLU AIRPORT* N/A N/A N/A N/A E9 N/A  
KAMUELA* NOT AVBL  
HAKALAU* N/A N/A N/A N/A W3 N/A  
KALOKO-HONOKO* N/A 66 54 63 CALM 29.99  
PALI 2* N/A 55 50 82 N12G17 N/A  
KEALAKOMO* N/A 72 59 64 N13G23 N/A  
KAUPULEHU* N/A 63 45 51 SE7 N/A  
KAPAPALA* N/A 56 54 94 NW6 N/A  
LOWER KAHUKU* N/A 52 -45 1 N2 N/A  
PUHE CS* N/A 70 50 49 E5 N/A  
PUHO CS* N/A 67 53 61 E3 N/A  
PTA KEAMUKU* N/A 52 37 58 CALM N/A  
WAIKOLOA* N/A 63 52 67 E15G25 N/A  

 
 
HIZ027>028-111300-  
BIG ISLAND OF HAWAII INTERIOR AND SUMMMITS-  
 
CITY SKY/WX TMP DP RH WIND PRES REMARKS
 
BRADSHAW FIELD CLOUDY 44 21 40 SE3 30.28F  
MK VISITOR CEN N/A 41 -13 9 VRB7 N/A  
MAUNA KEA* N/A 39 -24 6 N31G44 N/A WCI 27  
MAUNA LOA* N/A 41 -42 2 MISG N/A  
MAUNA LOA 1* NOT AVBL  
PTA KIPUKA* N/A N/A N/A N/A E3 N/A  
PTA RANGE 17* N/A 66 37 34 E8 N/A  
PTA WEST* N/A 70 50 49 SE6G14 N/A  
NENE CABIN* N/A 39 14 35 N6 N/A  
AHUMOA* N/A N/A N/A N/A E9 N/A  
PTA PORTABLE* NOT AVBL  
PUU MALI* N/A N/A N/A N/A SW8 N/A  

 
 
HIC003-111300-  
NORTHWEST ISLANDS-  
 
CITY SKY/WX TMP DP RH WIND PRES REMARKS
 
MIDWAY ISLAND CLOUDY 70 68 94 S12 29.87F  
MIDWAY NOS* NOT AVBL  
FRENCH FRIGATE NOT AVBL  

 
 
PHZ110>124-180-111300-  
BUOY REPORTS  
 
STATION/POSITION TIME TEMP WIND PRES WAVE SWELL
 
AIR SEA DIR/SP/G HT/PER HT/DIR  
(UTC) (F) (DEG/KT/KT) (MB) (FT/S) (FT/D)  
BUOY 51001 1200 72 75 80/ 8/ 12 1018.0F  
BUOY 51101 1150 72 75 70/ 8/ 12 1017.9F 15/16 15/330  
BUOY 51100 NOT AVBL  
BUOY 51002 1150 76 78 70/ 17/ 19 1014.9F 12/17 11/340  
BUOY 51003 1150 75 78 50/ 8/ 12 1016.8F 12/17 11/350  
BUOY 51004 1150 75 77 40/ 12/ 14 1014.9F 11/19 11/320  
BARBERS PT BUOY NOT AVBL  
WAIMEA BAY BUOY 1104 78 N/A 12/18 11/330  
KAILUA BAY BUOY 1211 77 N/A 8/18 7/360  
LANAI BUOY NOT AVBL  
BARBERS PT 2 1203 78 N/A 5/17 5/310  
PAUWELA MAUI 1207 76 N/A 13/18 11/330  
HILO NOT AVBL  
KANEOHE BAY BUOY 1206 76 N/A 7/17 5/350  
HANALEI KAUAI 1201 77 N/A 15/17 13/330  
KAHULUI HARBOR NOT AVBL  
HONOLULU HARBOR 1200 70 77 CALM / 1 1017.6F  
KILO NALU NOT AVBL  
HILO HARBOR 1200 65 76 190/ 3/ 4 1016.7F  
MOKUOLOE 1100 69 77 250/ 3/ 4 1017.8  
NAWILIWILI 1200 65 77 240/ 5/ 5 1017.7F  
WHOTS BUOY NOT AVBL  
BUOY 51028 NOT AVBL  

 
   
.....................KEY.....................................
 
 
SKY/WX - SKY CONDITIONS/PRESENT WEATHER  
TMP - TEMPERATURE IN FAHRENHEIT  
DWPT - DEWPOINT IN FAHRENHEIT  
RH - RELATIVE HUMIDITY IN PERCENT  
WIND - DIRECTION AND SPEED /MPH FOR ISLANDS...KTS FOR BUOYS/  
PRES - MEAN SEA LEVEL PRESSURE IN INCHES OF HG  
VSB - VISIBILITY IN MILES  
HX - HEAT INDEX  
WCI - WIND CHILL INDEX  
VRB - VARIABLE WIND DIRECTION  
N/A - NOT AVAILABLE  
 
 
CLICK HERE TO GO TO PREVIOUS BULLETINS.

The Nexlab HI Page Main Text Page